CW5988 Weather Reports


time (UTC)temp
F
wind
direction
speed
knots
gust
knots
rain 1hr
in
rain 24hr
in
rain mn
in
humidity
%
barometer
mb
20260509112929 53 134 1.7 5.2 0.00 0.00 0.00 87 1015.4
20260509112431 53 219 2.6 5.2 0.00 0.00 0.00 87 1015.4
20260509111936 53 75 3.5 4.3 0.00 0.00 0.00 87 1015.3
20260509111422 53 34 1.7 5.2 0.00 0.00 0.00 87 1015.3
20260509110931 53 337 2.6 5.2 0.00 0.00 0.00 87 1015.4
20260509110434 53 8 1.7 5.2 0.00 0.00 0.00 87 1015.4
20260509105921 53 81 1.7 8.7 0.00 0.00 0.00 87 1015.4
20260509105427 53 302 2.6 8.7 0.00 0.00 0.00 87 1015.4
20260509104931 53 22 0.9 4.3 0.00 0.00 0.00 87 1015.4
20260509104432 53 74 0.9 3.5 0.00 0.00 0.00 86 1015.4
20260509103938 53 268 2.6 3.5 0.00 0.00 0.00 86 1015.4
20260509103424 53 134 0.9 5.2 0.00 0.00 0.00 86 1015.5
20260509102932 53 196 1.7 7.8 0.00 0.00 0.00 86 1015.5
20260509102440 53 45 2.6 7.8 0.00 0.00 0.00 86 1015.4
20260509101927 53 233 2.6 7.0 0.00 0.00 0.00 86 1015.5
20260509101434 53 107 3.5 7.0 0.00 0.00 0.00 86 1015.5
20260509100936 53 253 2.6 12.2 0.00 0.00 0.00 86 1015.6
20260509100452 53 134 3.5 9.6 0.00 0.00 0.00 86 1015.5
20260509095938 53 231 4.3 9.6 0.00 0.00 0.00 86 1015.5
20260509095425 53 222 1.7 4.3 0.00 0.00 0.00 86 1015.5
20260509094952 53 45 0.9 3.5 0.00 0.00 0.00 85 1015.6
20260509094437 53 268 0.9 4.3 0.00 0.00 0.00 86 1015.6
20260509093922 53 58 1.7 7.0 0.00 0.00 0.00 85 1015.7
20260509093422 53 224 3.5 7.0 0.00 0.00 0.00 85 1015.8
20260509092928 53 116 0.9 3.5 0.00 0.00 0.00 85 1015.8
20260509092434 53 192 1.7 7.8 0.00 0.00 0.00 85 1015.9
20260509091940 53 231 3.5 7.8 0.00 0.00 0.00 85 1015.9
20260509091426 53 177 0.9 5.2 0.00 0.00 0.00 85 1015.8
20260509090932 53 97 2.6 5.2 0.00 0.00 0.00 85 1015.8
20260509090438 53 94 2.6 3.5 0.00 0.00 0.00 85 1015.6
20260509085926 53 73 1.7 3.5 0.00 0.00 0.00 85 1015.6
20260509085430 53 75 1.7 3.5 0.00 0.00 0.00 85 1015.5
20260509084938 53 88 1.7 3.5 0.00 0.00 0.00 85 1015.6
20260509084454 53 151 1.7 3.5 0.00 0.00 0.00 85 1015.7
20260509083922 53 111 2.6 3.5 0.00 0.00 0.00 85 1015.7
20260509083430 53 163 1.7 3.5 0.00 0.00 0.00 85 1015.7
20260509082937 53 62 2.6 4.3 0.00 0.00 0.00 85 1015.8
20260509082456 53 45 2.6 4.3 0.00 0.00 0.00 85 1015.8
20260509081937 53 163 1.7 2.6 0.00 0.00 0.00 85 1015.9
20260509081444 53 212 0.9 2.6 0.00 0.00 0.00 85 1015.9
20260509080958 53 41 1.7 2.6 0.00 0.00 0.00 85 1015.9
20260509080423 53 141 1.7 5.2 0.00 0.00 0.00 84 1015.9
20260509075950 53 278 1.7 5.2 0.00 0.00 0.00 84 1015.9
20260509075433 54 299 2.6 7.8 0.00 0.00 0.00 84 1016.0
20260509074933 54 288 2.6 7.8 0.00 0.00 0.00 84 1016.1
20260509074420 54 147 2.6 6.1 0.00 0.00 0.00 84 1016.0
20260509073927 54 48 2.6 6.1 0.00 0.00 0.00 84 1016.1
20260509073431 54 351 1.7 4.3 0.00 0.00 0.00 84 1016.1
20260509072920 54 88 2.6 4.3 0.00 0.00 0.00 84 1016.0
20260509072447 54 48 2.6 4.3 0.00 0.00 0.00 84 1016.1
20260509071932 54 45 0.9 5.2 0.00 0.00 0.00 84 1016.2
20260509071435 54 101 2.6 5.2 0.00 0.00 0.00 84 1016.1
20260509070922 54 300 2.6 7.0 0.00 0.00 0.00 84 1016.1
20260509070431 54 62 2.6 8.7 0.00 0.00 0.00 84 1016.1
20260509065937 54 284 3.5 11.3 0.00 0.00 0.00 84 1016.1
20260509065424 54 225 5.2 10.4 0.00 0.00 0.00 84 1016.3
20260509064953 54 31 1.7 8.7 0.00 0.00 0.00 84 1016.4
20260509064420 54 273 5.2 8.7 0.00 0.00 0.00 84 1016.3
20260509063924 54 360 2.6 4.3 0.00 0.00 0.00 84 1016.4
20260509063431 54 134 2.6 11.3 0.00 0.00 0.00 84 1016.3
20260509062938 54 5 3.5 11.3 0.00 0.00 0.00 84 1016.4
20260509062425 54 239 3.5 8.7 0.00 0.00 0.00 85 1016.3
20260509061934 54 263 5.2 8.7 0.00 0.00 0.00 85 1016.5
20260509061421 54 242 4.3 7.8 0.00 0.00 0.00 85 1016.4
20260509060927 54 282 2.6 9.6 0.00 0.00 0.00 85 1016.5
20260509060430 54 134 1.7 9.6 0.00 0.00 0.00 85 1016.5
20260509055936 54 277 5.2 13.0 0.00 0.00 0.00 85 1016.6
20260509055422 54 261 4.3 13.0 0.00 0.00 0.00 85 1016.6
20260509054958 54 268 5.2 13.0 0.00 0.00 0.00 85 1016.6
20260509054423 54 263 9.6 13.0 0.00 0.00 0.00 85 1016.6
20260509053932 54 280 5.2 11.3 0.00 0.00 0.00 85 1016.6
20260509053439 54 256 4.3 15.6 0.00 0.00 0.00 85 1016.7
20260509052923 54 207 5.2 15.6 0.00 0.00 0.00 85 1016.6
20260509052425 54 273 6.1 13.9 0.00 0.00 0.00 85 1016.6
20260509051933 54 264 7.8 13.9 0.00 0.00 0.00 84 1016.5
20260509051440 54 232 7.0 17.4 0.00 0.00 0.00 84 1016.6
20260509050955 54 221 10.4 17.4 0.00 0.00 0.00 84 1016.5
20260509050439 54 268 7.8 18.2 0.00 0.00 0.00 84 1016.6
20260509045927 54 265 7.8 17.4 0.00 0.00 0.00 84 1016.5
20260509045434 54 270 8.7 17.4 0.00 0.00 0.00 84 1016.5
20260509044935 54 242 6.1 18.2 0.00 0.00 0.00 84 1016.3
20260509044420 54 252 10.4 18.2 0.00 0.00 0.00 84 1016.4
20260509043926 54 257 6.1 13.0 0.00 0.00 0.00 84 1016.3
20260509043424 54 242 5.2 13.9 0.00 0.00 0.00 84 1016.4
20260509042930 54 232 5.2 15.6 0.00 0.00 0.00 84 1016.3
20260509042437 54 253 7.8 16.5 0.00 0.00 0.00 84 1016.3
20260509041926 54 276 8.7 19.1 0.00 0.00 0.00 84 1016.2
20260509041429 54 188 11.3 19.1 0.00 0.00 0.00 84 1016.2
20260509040935 54 275 7.8 16.5 0.00 0.00 0.00 84 1016.2
20260509040420 54 231 5.2 15.6 0.00 0.00 0.00 84 1016.2
20260509035926 54 292 7.0 13.9 0.00 0.00 0.00 84 1016.1
20260509035424 54 241 6.1 13.0 0.00 0.00 0.00 84 1016.1
20260509034932 54 257 5.2 13.9 0.00 0.00 0.00 84 1016.1
20260509034439 54 275 5.2 17.4 0.00 0.00 0.00 84 1016.2
20260509033923 54 240 7.0 17.4 0.00 0.00 0.00 83 1016.2
20260509033440 54 268 7.8 17.4 0.00 0.00 0.00 83 1016.2
20260509032925 54 250 8.7 17.4 0.00 0.00 0.00 83 1016.0
20260509032435 54 224 10.4 17.4 0.00 0.00 0.00 83 1016.0
20260509031940 54 281 7.8 13.9 0.00 0.00 0.00 83 1015.9
20260509031449 54 242 7.8 16.5 0.00 0.00 0.00 83 1015.9
20260509030935 55 236 7.8 16.5 0.00 0.00 0.00 83 1015.9
20260509030436 55 256 7.8 16.5 0.00 0.00 0.00 83 1015.8
20260509025921 55 219 7.8 14.8 0.00 0.00 0.00 83 1015.8
20260509025428 55 276 7.8 18.2 0.00 0.00 0.00 82 1015.8
20260509024933 55 306 7.8 18.2 0.00 0.00 0.00 82 1015.8
20260509024420 55 250 8.7 15.6 0.00 0.00 0.00 82 1015.8
20260509023926 55 240 7.8 20.9 0.00 0.00 0.00 82 1015.9
20260509023433 55 223 8.7 20.0 0.00 0.00 0.00 82 1015.8
20260509022938 55 213 7.0 18.2 0.00 0.00 0.00 82 1015.8
20260509022450 55 256 10.4 20.0 0.00 0.00 0.00 81 1015.9
20260509021935 55 272 10.4 20.0 0.00 0.00 0.00 81 1015.8
20260509021453 56 226 8.7 20.0 0.00 0.00 0.00 81 1015.8
20260509020921 56 256 9.6 23.5 0.00 0.00 0.00 81 1015.8
20260509020425 56 238 13.0 23.5 0.00 0.00 0.00 81 1015.8
20260509015951 56 294 11.3 22.6 0.00 0.00 0.00 80 1015.7
20260509015432 56 280 10.4 22.6 0.00 0.00 0.00 80 1015.8
20260509014938 56 245 11.3 20.9 0.00 0.00 0.00 80 1015.9
20260509014454 57 243 12.2 26.1 0.00 0.00 0.00 80 1015.8
20260509013939 57 252 10.4 26.1 0.00 0.00 0.00 80 1015.9
20260509013425 57 271 13.9 21.7 0.00 0.00 0.00 80 1016.0
20260509012930 57 292 12.2 20.0 0.00 0.00 0.00 79 1016.2
20260509012434 57 270 9.6 21.7 0.00 0.00 0.00 79 1016.1
20260509011921 57 277 13.0 23.5 0.00 0.00 0.00 79 1016.1
20260509011423 57 269 11.3 23.5 0.00 0.00 0.00 79 1016.1
20260509010951 57 284 12.2 21.7 0.00 0.00 0.00 79 1016.1
20260509010438 58 242 13.0 21.7 0.00 0.00 0.00 79 1016.1
20260509005923 58 298 10.4 20.0 0.00 0.00 0.00 79 1016.1
20260509005429 57 268 13.0 23.5 0.00 0.00 0.00 79 1016.1
20260509004933 57 275 10.4 23.5 0.00 0.00 0.00 79 1016.1
20260509004420 58 251 12.2 23.5 0.00 0.00 0.00 79 1016.2
20260509003922 57 277 12.2 29.5 0.00 0.00 0.00 79 1016.2
20260509003430 57 257 15.6 29.5 0.00 0.00 0.00 79 1016.1
20260509002938 57 257 14.8 25.2 0.00 0.00 0.00 79 1016.1
20260509002424 58 254 12.2 21.7 0.00 0.00 0.00 79 1016.2
20260509001927 57 254 11.3 23.5 0.00 0.00 0.00 79 1016.2
20260509001432 57 271 12.2 28.7 0.00 0.00 0.00 79 1016.2
20260509000937 57 258 15.6 28.7 0.00 0.00 0.00 79 1016.3
20260509000436 57 276 15.6 25.2 0.00 0.00 0.00 79 1016.2
20260508235942 58 268 14.8 25.2 0.00 0.00 0.00 79 1016.2
20260508235448 58 277 12.2 26.9 0.00 0.00 0.00 79 1016.2
20260508234931 58 270 15.6 25.2 0.00 0.00 0.00 78 1016.2
20260508234438 58 263 14.8 24.3 0.00 0.00 0.00 78 1016.2
20260508233925 58 251 14.8 25.2 0.00 0.00 0.00 78 1016.4
20260508233427 59 242 13.0 25.2 0.00 0.00 0.00 78 1016.4
20260508232934 59 237 13.0 24.3 0.00 0.00 0.00 78 1016.5
20260508232451 59 251 14.8 25.2 0.00 0.00 0.00 77 1016.7
20260508231938 59 265 12.2 26.1 0.00 0.00 0.00 77 1016.6
20260508231424 59 263 13.0 26.1 0.00 0.00 0.00 76 1016.7
20260508230931 60 251 10.4 22.6 0.00 0.00 0.00 77 1016.8
20260508230433 60 262 13.0 22.6 0.00 0.00 0.00 76 1016.8
20260508225935 60 262 8.7 18.2 0.00 0.00 0.00 76 1017.0
20260508225420 60 237 8.7 20.0 0.00 0.00 0.00 76 1017.2
20260508224930 60 261 11.3 20.0 0.00 0.00 0.00 76 1017.3
20260508224438 60 313 11.3 22.6 0.00 0.00 0.00 76 1017.4
20260508223924 60 237 8.7 17.4 0.00 0.00 0.00 76 1017.4
20260508223431 60 308 8.7 20.0 0.00 0.00 0.00 76 1017.4
20260508222935 60 270 11.3 20.0 0.00 0.00 0.00 76 1017.4
20260508222438 60 275 11.3 17.4 0.00 0.00 0.00 76 1017.5
20260508221942 61 315 7.8 19.1 0.00 0.00 0.00 76 1017.6
20260508221428 60 284 11.3 19.1 0.00 0.00 0.00 76 1017.7
20260508220936 60 282 11.3 19.1 0.00 0.00 0.00 76 1017.6
20260508220424 60 270 11.3 22.6 0.00 0.00 0.00 76 1017.7
20260508215959 60 282 13.0 22.6 0.00 0.00 0.00 76 1017.8
20260508215426 60 294 12.2 20.9 0.00 0.00 0.00 76 1017.9
20260508214935 60 275 11.3 20.0 0.00 0.00 0.00 76 1017.9
20260508214437 60 299 11.3 21.7 0.00 0.00 0.00 76 1017.9
20260508213925 59 272 11.3 21.7 0.00 0.00 0.00 77 1018.0
20260508213458 59 223 12.2 21.7 0.00 0.00 0.00 77 1018.0
20260508212924 59 265 13.9 22.6 0.00 0.00 0.00 77 1018.0
20260508212431 59 278 14.8 22.6 0.00 0.00 0.00 77 1018.0
20260508211938 59 244 13.9 20.9 0.00 0.00 0.00 76 1018.1
20260508211423 60 268 12.2 20.0 0.00 0.00 0.00 76 1018.1
20260508210927 60 251 10.4 21.7 0.00 0.00 0.00 77 1018.2
20260508210435 59 259 11.3 21.7 0.00 0.00 0.00 77 1018.2
20260508205923 59 229 13.0 20.0 0.00 0.00 0.00 77 1018.2
20260508205432 59 231 11.3 20.0 0.00 0.00 0.00 76 1018.2
20260508204922 60 243 10.4 19.1 0.00 0.00 0.00 76 1018.3
20260508204428 60 277 8.7 16.5 0.00 0.00 0.00 76 1018.3
20260508203935 60 268 9.6 16.5 0.00 0.00 0.00 76 1018.4
20260508203422 60 285 8.7 15.6 0.00 0.00 0.00 76 1018.4
20260508202924 60 268 9.6 16.5 0.00 0.00 0.00 76 1018.5
20260508202434 60 278 8.7 16.5 0.00 0.00 0.00 77 1018.5
20260508201951 60 257 8.7 17.4 0.00 0.00 0.00 76 1018.6
20260508201436 60 217 7.8 17.4 0.00 0.00 0.00 76 1018.6
20260508200942 60 224 8.7 14.8 0.00 0.00 0.00 77 1018.6
20260508200455 60 222 7.0 14.8 0.00 0.00 0.00 77 1018.6
20260508195939 59 233 7.8 17.4 0.00 0.00 0.00 77 1018.7
20260508195422 59 252 9.6 17.4 0.00 0.00 0.00 77 1018.8
20260508194959 59 249 8.7 14.8 0.00 0.00 0.00 77 1018.7
20260508194424 59 268 7.8 14.8 0.00 0.00 0.00 77 1018.7
20260508193931 59 316 8.7 15.6 0.00 0.00 0.00 78 1018.7
20260508193437 58 255 8.7 18.2 0.00 0.00 0.00 78 1018.9
20260508192926 58 207 10.4 18.2 0.00 0.00 0.00 78 1018.8
20260508192434 58 294 7.8 16.5 0.00 0.00 0.00 78 1018.8
20260508191922 58 216 8.7 16.5 0.00 0.00 0.00 78 1018.8
20260508191444 58 287 8.7 16.5 0.00 0.00 0.00 79 1018.9
20260508190930 58 282 7.8 14.8 0.00 0.00 0.00 79 1019.0
20260508190436 58 263 7.8 14.8 0.00 0.00 0.00 79 1019.0
20260508190000 58 284 8.7 19.1 0.00 0.00 0.00 80 1019.1
20260508185422 57 249 9.6 19.1 0.00 0.00 0.00 80 1019.0
20260508184927 57 276 9.6 15.6 0.00 0.00 0.00 80 1019.0
20260508184431 57 195 7.8 16.5 0.00 0.00 0.00 81 1019.0
20260508183921 57 261 8.7 16.5 0.00 0.00 0.00 81 1019.0
20260508183426 57 239 7.0 18.2 0.00 0.00 0.00 82 1019.1
20260508182932 56 273 9.6 18.2 0.00 0.00 0.00 82 1019.2
20260508182420 56 311 7.0 15.6 0.00 0.00 0.00 82 1019.2
20260508181926 56 249 8.7 14.8 0.00 0.00 0.00 82 1019.1
20260508181450 56 232 7.8 13.0 0.00 0.00 0.00 83 1019.3
20260508180936 56 310 4.3 11.3 0.00 0.00 0.00 83 1019.1
20260508180450 56 237 5.2 10.4 0.00 0.00 0.00 84 1019.1
20260508175934 55 286 3.5 12.2 0.00 0.00 0.00 84 1019.2
20260508175437 55 261 3.5 12.2 0.00 0.00 0.00 84 1019.2
20260508174922 55 40 4.3 10.4 0.00 0.00 0.00 84 1019.3
20260508174424 55 222 6.1 9.6 0.00 0.00 0.00 84 1019.3
20260508173932 55 299 5.2 11.3 0.00 0.00 0.00 84 1019.3
20260508173438 55 319 5.2 11.3 0.00 0.00 0.00 84 1019.4
20260508172954 55 255 3.5 10.4 0.00 0.00 0.00 84 1019.4
20260508172439 55 290 5.2 10.4 0.00 0.00 0.00 84 1019.5
20260508171925 55 256 4.3 13.0 0.00 0.00 0.00 84 1019.4
20260508171431 55 316 7.8 13.0 0.00 0.00 0.00 84 1019.4
20260508170920 55 264 6.1 12.2 0.00 0.00 0.00 83 1019.4
20260508170421 55 319 6.1 12.2 0.00 0.00 0.00 83 1019.4
20260508165944 55 298 5.2 10.4 0.00 0.00 0.00 83 1019.3
20260508165451 55 310 6.1 12.2 0.00 0.00 0.00 83 1019.3
20260508164935 55 268 6.1 14.8 0.00 0.00 0.00 83 1019.2
20260508164442 54 295 7.0 15.6 0.00 0.00 0.00 83 1019.3
20260508163923 54 249 8.7 15.6 0.00 0.00 0.00 82 1019.3
20260508163429 55 277 7.0 13.9 0.00 0.00 0.00 82 1019.2
20260508162937 55 274 6.1 15.6 0.00 0.00 0.00 82 1019.2
20260508162424 55 280 8.7 17.4 0.00 0.00 0.00 82 1019.2
20260508161931 55 275 9.6 17.4 0.00 0.00 0.00 82 1019.2
20260508161438 55 227 7.0 13.0 0.00 0.00 0.00 82 1019.1
20260508160924 55 265 5.2 13.9 0.00 0.00 0.00 82 1019.1
20260508160429 55 254 7.0 13.9 0.00 0.00 0.00 82 1019.0
20260508155930 55 285 5.2 12.2 0.00 0.00 0.00 83 1018.8
20260508155437 55 287 7.0 13.9 0.00 0.00 0.00 83 1018.8
20260508154922 54 268 7.8 13.9 0.00 0.00 0.00 83 1018.7
20260508154428 54 251 5.2 12.2 0.00 0.00 0.00 84 1018.8
20260508153933 54 270 7.8 12.2 0.00 0.00 0.00 84 1018.7
20260508153439 54 258 5.2 13.0 0.00 0.00 0.00 84 1018.8
20260508152954 54 277 3.5 13.0 0.00 0.00 0.00 84 1018.7
20260508152436 53 268 4.3 11.3 0.00 0.00 0.00 84 1018.7
20260508151924 53 294 4.3 13.0 0.00 0.00 0.00 84 1018.7
20260508151500 53 295 6.1 13.0 0.00 0.00 0.00 85 1018.7
20260508150924 53 225 4.3 9.6 0.00 0.00 0.00 84 1018.7
20260508150450 53 291 5.2 16.5 0.00 0.00 0.00 85 1018.7
20260508145934 53 303 9.6 16.5 0.00 0.00 0.00 85 1018.7
20260508145435 53 256 5.2 16.5 0.00 0.00 0.00 85 1018.7
20260508144937 53 283 6.1 16.5 0.00 0.00 0.00 85 1018.7
20260508144424 53 280 5.2 12.2 0.00 0.00 0.00 85 1018.7
20260508143932 53 282 7.0 14.8 0.00 0.00 0.00 85 1018.7
20260508143438 53 272 7.0 14.8 0.00 0.00 0.00 85 1018.7
20260508142921 53 285 7.0 13.9 0.00 0.00 0.00 85 1018.6
20260508142427 53 264 7.0 13.9 0.00 0.00 0.00 85 1018.6
20260508141935 53 211 5.2 12.2 0.00 0.00 0.00 85 1018.6
20260508141436 53 302 5.2 16.5 0.00 0.00 0.00 85 1018.5
20260508140924 53 294 7.0 16.5 0.00 0.00 0.00 85 1018.5
20260508140431 52 306 8.7 13.9 0.00 0.00 0.00 85 1018.5
20260508135936 52 252 5.2 18.2 0.00 0.00 0.00 85 1018.5
20260508135422 52 278 7.0 18.2 0.00 0.00 0.00 85 1018.4
20260508134928 52 232 7.0 19.1 0.00 0.00 0.00 85 1018.3
20260508134433 52 268 9.6 19.1 0.00 0.00 0.00 85 1018.3
20260508133934 52 263 9.6 19.1 0.00 0.00 0.00 85 1018.3
20260508133440 52 249 9.6 20.0 0.00 0.00 0.00 85 1018.2
20260508132924 52 275 12.2 20.0 0.00 0.00 0.00 84 1018.2
20260508132501 52 252 8.7 20.0 0.00 0.00 0.00 84 1018.2
20260508131925 53 280 9.6 20.9 0.00 0.00 0.00 85 1018.2
20260508131500 52 256 10.4 20.9 0.00 0.00 0.00 85 1018.2
20260508130925 52 258 5.2 17.4 0.00 0.00 0.00 84 1018.2
20260508130428 53 230 4.3 17.4 0.00 0.00 0.00 85 1018.2
20260508125932 53 222 5.2 12.2 0.00 0.00 0.00 85 1018.3
20260508125419 53 233 4.3 13.0 0.00 0.00 0.00 85 1018.2
20260508124927 53 268 6.1 15.6 0.00 0.00 0.00 84 1018.2
20260508124436 53 275 7.8 15.6 0.00 0.00 0.00 84 1018.2
20260508123922 53 211 6.1 15.6 0.00 0.00 0.00 84 1018.1
20260508123430 53 307 7.8 18.2 0.00 0.00 0.00 84 1018.2
20260508122932 53 277 9.6 18.2 0.00 0.00 0.00 84 1018.1
20260508122438 53 284 7.8 18.2 0.00 0.00 0.00 84 1018.1
20260508121956 53 310 4.3 9.6 0.00 0.00 0.00 84 1018.2
20260508121422 53 101 1.7 13.0 0.00 0.00 0.00 84 1018.2
20260508120931 53 209 5.2 13.9 0.00 0.00 0.00 85 1018.1
20260508120436 53 276 7.8 19.1 0.00 0.00 0.00 85 1018.1
20260508115923 53 261 4.3 19.1 0.00 0.00 0.00 85 1018.0
20260508115430 53 190 7.8 17.4 0.00 0.00 0.00 85 1018.0
20260508114935 53 314 7.0 17.4 0.00 0.00 0.00 85 1018.0
20260508114421 53 244 7.8 13.9 0.00 0.00 0.00 85 1018.2
20260508113958 53 313 3.5 12.2 0.00 0.00 0.00 85 1018.0
20260508113443 53 273 6.1 15.6 0.00 0.00 0.00 85 1018.0